BREEZE-M R/B            
1 29254U 06032B   19258.35894833  .00000058  00000-0  00000+0 0  9993
2 29254  12.4604 131.2310 6054056 233.4607   5.4393  2.06437170 98914
EUTELSAT HOT BIRD 13B   
1 29270U 06032A   19260.84246116  .00000082  00000-0  00000+0 0  9990
2 29270   0.0814 335.3854 0002422 219.7187 117.6467  1.00271976 48143
BREEZE-M DEB [TANK]     
1 29271U 06032C   19260.65836727  .00000057  00000-0  34786-4 0  9998
2 29271  49.5268  44.2918 5308579  85.4937 330.5399  5.10105669238039